| time (UTC) | temp C | wind direction | speed KPH | gust KPH | rain 1hr cm | rain 24hr cm | rain mn cm | humidity % | barometer mb |
| 20260831000021 | 20 | 321 | 3.2 | 12.9 | 0.00 | 0.00 | 0.00 | 51 | 1018.8 |
| 20260830235512 | 20 | 312 | 6.4 | 12.9 | 0.00 | 0.00 | 0.00 | 49 | 1018.8 |
| 20260830235003 | 20 | 292 | 3.2 | 11.3 | 0.00 | 0.00 | 0.00 | 48 | 1018.9 |
| 20260830234504 | 21 | 306 | 1.6 | 12.9 | 0.00 | 0.00 | 0.00 | 48 | 1018.9 |
| 20260830234007 | 21 | 286 | 3.2 | 12.9 | 0.00 | 0.00 | 0.00 | 48 | 1019.1 |
| 20260830233505 | 21 | 176 | 3.2 | 6.4 | 0.00 | 0.00 | 0.00 | 46 | 1019.1 |
| 20260830233007 | 21 | 328 | 0.0 | 6.4 | 0.00 | 0.00 | 0.00 | 47 | 1019.1 |
| 20260830232505 | 20 | 292 | 1.6 | 9.7 | 0.00 | 0.00 | 0.00 | 50 | 1019.1 |
| 20260830232009 | 20 | 290 | 4.8 | 9.7 | 0.00 | 0.00 | 0.00 | 49 | 1019.1 |
| 20260830231526 | 20 | 331 | 4.8 | 9.7 | 0.00 | 0.00 | 0.00 | 51 | 1019.2 |
| 20260830231008 | 20 | 290 | 3.2 | 9.7 | 0.00 | 0.00 | 0.00 | 51 | 1019.2 |
| 20260830230512 | 20 | 250 | 3.2 | 9.7 | 0.00 | 0.00 | 0.00 | 51 | 1019.2 |
| 20260830230018 | 21 | 184 | 1.6 | 11.3 | 0.00 | 0.00 | 0.00 | 53 | 1019.1 |
| 20260830225511 | 20 | 127 | 1.6 | 11.3 | 0.00 | 0.00 | 0.00 | 53 | 1019.2 |
| 20260830225013 | 20 | 294 | 3.2 | 9.7 | 0.00 | 0.00 | 0.00 | 53 | 1019.2 |
| 20260830224524 | 20 | 273 | 3.2 | 9.7 | 0.00 | 0.00 | 0.00 | 54 | 1019.3 |
| 20260830224012 | 20 | 286 | 1.6 | 9.7 | 0.00 | 0.00 | 0.00 | 55 | 1019.3 |
| 20260830223504 | 20 | 289 | 4.8 | 9.7 | 0.00 | 0.00 | 0.00 | 54 | 1019.4 |
| 20260830223012 | 21 | 284 | 3.2 | 9.7 | 0.00 | 0.00 | 0.00 | 53 | 1019.5 |
| 20260830222504 | 20 | 302 | 3.2 | 9.7 | 0.00 | 0.00 | 0.00 | 53 | 1019.5 |
| 20260830222008 | 20 | 176 | 1.6 | 6.4 | 0.00 | 0.00 | 0.00 | 55 | 1019.6 |
| 20260830221512 | 20 | 281 | 4.8 | 9.7 | 0.00 | 0.00 | 0.00 | 52 | 1019.7 |
| 20260830221010 | 20 | 208 | 3.2 | 11.3 | 0.00 | 0.00 | 0.00 | 54 | 1019.6 |
| 20260830220508 | 20 | 242 | 1.6 | 11.3 | 0.00 | 0.00 | 0.00 | 55 | 1019.6 |
| 20260830220022 | 20 | 182 | 4.8 | 11.3 | 0.00 | 0.00 | 0.00 | 53 | 1019.6 |
| 20260830215510 | 20 | 215 | 3.2 | 11.3 | 0.00 | 0.00 | 0.00 | 55 | 1019.6 |
| 20260830215013 | 20 | 134 | 4.8 | 11.3 | 0.00 | 0.00 | 0.00 | 53 | 1019.6 |
| 20260830214528 | 20 | 158 | 6.4 | 11.3 | 0.00 | 0.00 | 0.00 | 54 | 1019.6 |
| 20260830214012 | 20 | 311 | 1.6 | 9.7 | 0.00 | 0.00 | 0.00 | 53 | 1019.8 |
| 20260830213517 | 20 | 213 | 3.2 | 12.9 | 0.00 | 0.00 | 0.00 | 56 | 1019.8 |
| 20260830213028 | 19 | 151 | 4.8 | 12.9 | 0.00 | 0.00 | 0.00 | 56 | 1019.9 |
| 20260830212516 | 19 | 92 | 4.8 | 9.7 | 0.00 | 0.00 | 0.00 | 55 | 1019.9 |
| 20260830212004 | 19 | 205 | 3.2 | 9.7 | 0.00 | 0.00 | 0.00 | 57 | 1020.0 |
| 20260830211517 | 19 | 126 | 3.2 | 9.7 | 0.00 | 0.00 | 0.00 | 57 | 1020.0 |
| 20260830211008 | 20 | 184 | 3.2 | 8.0 | 0.00 | 0.00 | 0.00 | 56 | 1020.1 |
| 20260830210508 | 20 | 193 | 1.6 | 11.3 | 0.00 | 0.00 | 0.00 | 57 | 1020.1 |
| 20260830210014 | 19 | 140 | 4.8 | 11.3 | 0.00 | 0.00 | 0.00 | 60 | 1020.1 |
| 20260830205513 | 19 | 59 | 1.6 | 11.3 | 0.00 | 0.00 | 0.00 | 60 | 1020.2 |
| 20260830205008 | 18 | 155 | 4.8 | 12.9 | 0.00 | 0.00 | 0.00 | 60 | 1020.2 |
| 20260830204519 | 19 | 207 | 3.2 | 12.9 | 0.00 | 0.00 | 0.00 | 61 | 1020.2 |
| 20260830204012 | 20 | 134 | 3.2 | 8.0 | 0.00 | 0.00 | 0.00 | 60 | 1020.3 |
| 20260830203512 | 20 | 258 | 0.0 | 6.4 | 0.00 | 0.00 | 0.00 | 58 | 1020.3 |
| 20260830203024 | 19 | 198 | 3.2 | 9.7 | 0.00 | 0.00 | 0.00 | 62 | 1020.3 |
| 20260830202517 | 18 | 132 | 4.8 | 9.7 | 0.00 | 0.00 | 0.00 | 62 | 1020.3 |
| 20260830202016 | 18 | 204 | 4.8 | 9.7 | 0.00 | 0.00 | 0.00 | 61 | 1020.4 |
| 20260830201529 | 18 | 308 | 3.2 | 9.7 | 0.00 | 0.00 | 0.00 | 63 | 1020.5 |
| 20260830201018 | 18 | 159 | 1.6 | 8.0 | 0.00 | 0.00 | 0.00 | 64 | 1020.5 |
| 20260830200507 | 18 | 184 | 3.2 | 8.0 | 0.00 | 0.00 | 0.00 | 63 | 1020.5 |
| 20260830200010 | 18 | 213 | 1.6 | 11.3 | 0.00 | 0.00 | 0.00 | 65 | 1020.4 |
| 20260830195508 | 17 | 141 | 6.4 | 12.9 | 0.00 | 0.00 | 0.00 | 65 | 1020.5 |
| 20260830195012 | 18 | 205 | 6.4 | 12.9 | 0.00 | 0.00 | 0.00 | 63 | 1020.6 |
| 20260830194518 | 18 | 263 | 1.6 | 8.0 | 0.00 | 0.00 | 0.00 | 64 | 1020.6 |
| 20260830194011 | 18 | 147 | 4.8 | 8.0 | 0.00 | 0.00 | 0.00 | 64 | 1020.6 |
| 20260830193513 | 18 | 167 | 3.2 | 9.7 | 0.00 | 0.00 | 0.00 | 63 | 1020.7 |
| 20260830193024 | 18 | 254 | 4.8 | 9.7 | 0.00 | 0.00 | 0.00 | 65 | 1020.7 |
| 20260830192512 | 19 | 201 | 1.6 | 6.4 | 0.00 | 0.00 | 0.00 | 63 | 1020.7 |
| 20260830192016 | 18 | 261 | 1.6 | 6.4 | 0.00 | 0.00 | 0.00 | 62 | 1020.7 |
| 20260830191526 | 18 | 303 | 1.6 | 6.4 | 0.00 | 0.00 | 0.00 | 64 | 1020.7 |
| 20260830191018 | 19 | 215 | 1.6 | 6.4 | 0.00 | 0.00 | 0.00 | 62 | 1020.7 |
| 20260830190516 | 18 | 300 | 3.2 | 6.4 | 0.00 | 0.00 | 0.00 | 65 | 1020.7 |
| 20260830190033 | 18 | 215 | 0.0 | 9.7 | 0.00 | 0.00 | 0.00 | 65 | 1020.8 |
| 20260830185507 | 17 | 161 | 3.2 | 9.7 | 0.00 | 0.00 | 0.00 | 66 | 1020.8 |
| 20260830185008 | 17 | 240 | 3.2 | 6.4 | 0.00 | 0.00 | 0.00 | 66 | 1020.8 |
| 20260830184517 | 18 | 188 | 1.6 | 6.4 | 0.00 | 0.00 | 0.00 | 65 | 1020.9 |
| 20260830184009 | 17 | 235 | 1.6 | 11.3 | 0.00 | 0.00 | 0.00 | 67 | 1020.8 |
| 20260830183512 | 17 | 192 | 4.8 | 12.9 | 0.00 | 0.00 | 0.00 | 71 | 1020.9 |
| 20260830183020 | 16 | 164 | 8.0 | 12.9 | 0.00 | 0.00 | 0.00 | 67 | 1020.8 |
| 20260830182512 | 17 | 30 | 1.6 | 4.8 | 0.00 | 0.00 | 0.00 | 68 | 1020.8 |
| 20260830182014 | 17 | 200 | 1.6 | 4.8 | 0.00 | 0.00 | 0.00 | 67 | 1020.8 |
| 20260830181536 | 17 | 229 | 1.6 | 6.4 | 0.00 | 0.00 | 0.00 | 68 | 1020.9 |
| 20260830181015 | 17 | 175 | 1.6 | 8.0 | 0.00 | 0.00 | 0.00 | 67 | 1020.9 |
| 20260830180516 | 16 | 181 | 3.2 | 8.0 | 0.00 | 0.00 | 0.00 | 71 | 1020.9 |
| 20260830180049 | 16 | 280 | 3.2 | 8.0 | 0.00 | 0.00 | 0.00 | 71 | 1020.9 |
| 20260830175516 | 16 | 128 | 3.2 | 8.0 | 0.00 | 0.00 | 0.00 | 68 | 1020.9 |
| 20260830175017 | 16 | 148 | 3.2 | 6.4 | 0.00 | 0.00 | 0.00 | 71 | 1020.9 |
| 20260830174536 | 16 | 229 | 1.6 | 6.4 | 0.00 | 0.00 | 0.00 | 70 | 1020.9 |
| 20260830174010 | 16 | 43 | 1.6 | 4.8 | 0.00 | 0.00 | 0.00 | 72 | 1020.9 |
| 20260830173509 | 15 | 140 | 1.6 | 9.7 | 0.00 | 0.00 | 0.00 | 73 | 1021.0 |
| 20260830173025 | 15 | 153 | 4.8 | 9.7 | 0.00 | 0.00 | 0.00 | 74 | 1020.9 |
| 20260830172511 | 15 | 175 | 1.6 | 6.4 | 0.00 | 0.00 | 0.00 | 74 | 1020.9 |
| 20260830172012 | 15 | 140 | 1.6 | 4.8 | 0.00 | 0.00 | 0.00 | 73 | 1020.8 |
| 20260830171529 | 16 | 269 | 1.6 | 4.8 | 0.00 | 0.00 | 0.00 | 71 | 1020.8 |
| 20260830171018 | 16 | 130 | 1.6 | 4.8 | 0.00 | 0.00 | 0.00 | 72 | 1020.8 |
| 20260830170514 | 16 | 205 | 1.6 | 6.4 | 0.00 | 0.00 | 0.00 | 72 | 1020.8 |
| 20260830170028 | 16 | 209 | 1.6 | 6.4 | 0.00 | 0.00 | 0.00 | 72 | 1020.7 |
| 20260830165514 | 15 | 272 | 3.2 | 4.8 | 0.00 | 0.00 | 0.00 | 74 | 1020.7 |
| 20260830165015 | 15 | 117 | 1.6 | 4.8 | 0.00 | 0.00 | 0.00 | 75 | 1020.7 |
| 20260830164533 | 14 | 211 | 0.0 | 8.0 | 0.00 | 0.00 | 0.00 | 77 | 1020.8 |
| 20260830164014 | 14 | 173 | 1.6 | 8.0 | 0.00 | 0.00 | 0.00 | 78 | 1020.7 |
| 20260830163524 | 14 | 185 | 4.8 | 6.4 | 0.00 | 0.00 | 0.00 | 76 | 1020.7 |
| 20260830163030 | 14 | 238 | 1.6 | 4.8 | 0.00 | 0.00 | 0.00 | 77 | 1020.8 |
| 20260830162516 | 14 | 207 | 1.6 | 4.8 | 0.00 | 0.00 | 0.00 | 77 | 1020.8 |
| 20260830162012 | 14 | 329 | 0.0 | 8.0 | 0.00 | 0.00 | 0.00 | 77 | 1020.8 |
| 20260830161523 | 14 | 188 | 0.0 | 8.0 | 0.00 | 0.00 | 0.00 | 78 | 1020.8 |
| 20260830161014 | 14 | 197 | 3.2 | 6.4 | 0.00 | 0.00 | 0.00 | 78 | 1020.9 |
| 20260830160515 | 14 | 209 | 0.0 | 4.8 | 0.00 | 0.00 | 0.00 | 78 | 1021.0 |
| 20260830160032 | 13 | 196 | 1.6 | 4.8 | 0.00 | 0.00 | 0.00 | 79 | 1020.9 |
| 20260830155507 | 13 | 208 | 1.6 | 4.8 | 0.00 | 0.00 | 0.00 | 79 | 1020.8 |
| 20260830155003 | 13 | 196 | 0.0 | 4.8 | 0.00 | 0.00 | 0.00 | 78 | 1020.8 |
| 20260830154511 | 13 | 211 | 1.6 | 8.0 | 0.00 | 0.00 | 0.00 | 78 | 1020.8 |
| 20260830154006 | 13 | 181 | 3.2 | 8.0 | 0.00 | 0.00 | 0.00 | 78 | 1020.8 |
| 20260830153509 | 13 | 148 | 3.2 | 8.0 | 0.00 | 0.00 | 0.00 | 78 | 1020.8 |
| 20260830153016 | 13 | 157 | 1.6 | 6.4 | 0.00 | 0.00 | 0.00 | 79 | 1020.7 |
| 20260830152513 | 13 | 169 | 0.0 | 4.8 | 0.00 | 0.00 | 0.00 | 79 | 1020.7 |
| 20260830152011 | 13 | 155 | 1.6 | 4.8 | 0.00 | 0.00 | 0.00 | 79 | 1020.7 |
| 20260830151521 | 13 | 119 | 0.0 | 4.8 | 0.00 | 0.00 | 0.00 | 79 | 1020.6 |
| 20260830151011 | 13 | 144 | 1.6 | 8.0 | 0.00 | 0.00 | 0.00 | 79 | 1020.7 |
| 20260830150513 | 13 | 210 | 3.2 | 8.0 | 0.00 | 0.00 | 0.00 | 79 | 1020.7 |
| 20260830150025 | 13 | 113 | 0.0 | 6.4 | 0.00 | 0.00 | 0.00 | 80 | 1020.7 |
| 20260830145516 | 13 | 113 | 1.6 | 6.4 | 0.00 | 0.00 | 0.00 | 80 | 1020.7 |
| 20260830145004 | 13 | 148 | 1.6 | 6.4 | 0.00 | 0.00 | 0.00 | 80 | 1020.7 |
| 20260830144510 | 13 | 181 | 0.0 | 8.0 | 0.00 | 0.00 | 0.00 | 80 | 1020.7 |
| 20260830144004 | 13 | 154 | 1.6 | 8.0 | 0.00 | 0.00 | 0.00 | 80 | 1020.7 |
| 20260830143508 | 12 | 171 | 0.0 | 0.0 | 0.00 | 0.00 | 0.00 | 81 | 1020.7 |
| 20260830143012 | 12 | 160 | 0.0 | 0.0 | 0.00 | 0.00 | 0.00 | 82 | 1020.6 |
| 20260830142507 | 12 | 180 | 0.0 | 3.2 | 0.00 | 0.00 | 0.00 | 81 | 1020.6 |
| 20260830142010 | 12 | 161 | 0.0 | 3.2 | 0.00 | 0.08 | 0.00 | 81 | 1020.5 |
| 20260830141518 | 12 | 146 | 0.0 | 3.2 | 0.00 | 0.18 | 0.00 | 82 | 1020.4 |
| 20260830141012 | 12 | 146 | 0.0 | 3.2 | 0.00 | 0.36 | 0.00 | 83 | 1020.4 |
| 20260830140512 | 12 | 187 | 0.0 | 0.0 | 0.00 | 0.53 | 0.00 | 83 | 1020.4 |
| 20260830140026 | 12 | 217 | 0.0 | 0.0 | 0.00 | 0.76 | 0.00 | 83 | 1020.3 |
| 20260830135512 | 12 | 210 | 0.0 | 0.0 | 0.00 | 0.79 | 0.00 | 84 | 1020.3 |
| 20260830135014 | 12 | 210 | 0.0 | 0.0 | 0.00 | 0.81 | 0.00 | 84 | 1020.3 |
| 20260830134539 | 12 | 210 | 0.0 | 0.0 | 0.00 | 0.86 | 0.00 | 84 | 1020.3 |
| 20260830134014 | 12 | 210 | 0.0 | 0.0 | 0.00 | 0.97 | 0.00 | 84 | 1020.3 |
| 20260830133504 | 12 | 216 | 0.0 | 0.0 | 0.00 | 1.14 | 0.00 | 84 | 1020.3 |
| 20260830133010 | 12 | 165 | 0.0 | 0.0 | 0.00 | 1.37 | 0.00 | 84 | 1020.3 |
| 20260830132507 | 12 | 165 | 0.0 | 0.0 | 0.00 | 1.40 | 0.00 | 83 | 1020.3 |
| 20260830132013 | 12 | 150 | 0.0 | 0.0 | 0.00 | 1.42 | 0.00 | 83 | 1020.3 |
| 20260830131518 | 12 | 150 | 0.0 | 0.0 | 0.00 | 1.55 | 0.00 | 83 | 1020.3 |
| 20260830131011 | 12 | 150 | 0.0 | 0.0 | 0.00 | 1.57 | 0.00 | 83 | 1020.3 |
| 20260830130514 | 12 | 145 | 0.0 | 0.0 | 0.00 | 1.57 | 0.00 | 83 | 1020.3 |
| 20260830130021 | 12 | 136 | 0.0 | 0.0 | 0.00 | 1.60 | 0.00 | 83 | 1020.3 |
| 20260830125512 | 12 | 109 | 0.0 | 0.0 | 0.00 | 1.60 | 0.00 | 83 | 1020.2 |
| 20260830125013 | 12 | 117 | 0.0 | 0.0 | 0.00 | 1.60 | 0.00 | 84 | 1020.2 |
| 20260830124527 | 12 | 117 | 0.0 | 0.0 | 0.00 | 1.60 | 0.00 | 84 | 1020.2 |
| 20260830124015 | 12 | 117 | 0.0 | 0.0 | 0.00 | 1.60 | 0.00 | 83 | 1020.3 |
| 20260830123515 | 12 | 105 | 0.0 | 0.0 | 0.00 | 1.60 | 0.00 | 83 | 1020.2 |
| 20260830123031 | 12 | 105 | 0.0 | 0.0 | 0.00 | 1.60 | 0.00 | 83 | 1020.3 |
| 20260830122515 | 12 | 118 | 0.0 | 0.0 | 0.00 | 1.60 | 0.00 | 83 | 1020.3 |
| 20260830122009 | 12 | 156 | 0.0 | 0.0 | 0.00 | 1.60 | 0.00 | 83 | 1020.2 |
| 20260830121511 | 12 | 174 | 0.0 | 0.0 | 0.00 | 1.60 | 0.00 | 83 | 1020.3 |
| 20260830121008 | 12 | 174 | 0.0 | 0.0 | 0.00 | 1.60 | 0.00 | 83 | 1020.4 |
| 20260830120510 | 12 | 174 | 0.0 | 0.0 | 0.00 | 1.60 | 0.00 | 83 | 1020.4 |
| 20260830120017 | 12 | 174 | 0.0 | 0.0 | 0.00 | 1.60 | 0.00 | 83 | 1020.4 |
| 20260830115512 | 12 | 126 | 0.0 | 0.0 | 0.00 | 1.60 | 0.00 | 83 | 1020.4 |
| 20260830115014 | 12 | 126 | 0.0 | 0.0 | 0.00 | 1.60 | 0.00 | 83 | 1020.4 |
| 20260830114524 | 12 | 126 | 0.0 | 0.0 | 0.00 | 1.60 | 0.00 | 83 | 1020.4 |
| 20260830114016 | 12 | 126 | 0.0 | 0.0 | 0.00 | 1.60 | 0.00 | 83 | 1020.3 |
| 20260830113515 | 12 | 126 | 0.0 | 0.0 | 0.00 | 1.60 | 0.00 | 83 | 1020.3 |
| 20260830113030 | 12 | 125 | 0.0 | 0.0 | 0.00 | 1.60 | 0.00 | 83 | 1020.2 |
| 20260830112514 | 12 | 125 | 0.0 | 0.0 | 0.00 | 1.60 | 0.00 | 83 | 1020.2 |
| 20260830112016 | 12 | 125 | 0.0 | 0.0 | 0.00 | 1.60 | 0.00 | 83 | 1020.1 |
| 20260830111532 | 12 | 125 | 0.0 | 0.0 | 0.00 | 1.60 | 0.00 | 83 | 1020.1 |
| 20260830111016 | 12 | 160 | 0.0 | 0.0 | 0.00 | 1.60 | 0.00 | 83 | 1020.0 |
| 20260830110508 | 12 | 194 | 0.0 | 0.0 | 0.00 | 1.60 | 0.00 | 83 | 1020.1 |
| 20260830110017 | 12 | 216 | 0.0 | 0.0 | 0.00 | 1.60 | 0.00 | 83 | 1020.1 |
| 20260830105511 | 12 | 138 | 0.0 | 0.0 | 0.00 | 1.60 | 0.00 | 83 | 1020.1 |
| 20260830105012 | 12 | 138 | 0.0 | 3.2 | 0.00 | 1.60 | 0.00 | 83 | 1020.0 |
| 20260830104522 | 12 | 138 | 0.0 | 3.2 | 0.00 | 1.60 | 0.00 | 83 | 1020.1 |
| 20260830104012 | 12 | 221 | 0.0 | 6.4 | 0.00 | 1.60 | 0.00 | 83 | 1020.2 |
| 20260830103513 | 12 | 167 | 0.0 | 6.4 | 0.00 | 1.60 | 0.00 | 83 | 1020.2 |
| 20260830103028 | 12 | 146 | 0.0 | 3.2 | 0.00 | 1.60 | 0.00 | 83 | 1020.2 |
| 20260830102516 | 12 | 163 | 0.0 | 3.2 | 0.00 | 1.60 | 0.00 | 83 | 1020.2 |
| 20260830102015 | 12 | 165 | 0.0 | 0.0 | 0.00 | 1.60 | 0.00 | 83 | 1020.2 |
| 20260830101532 | 12 | 142 | 0.0 | 0.0 | 0.00 | 1.60 | 0.00 | 83 | 1020.2 |
| 20260830101014 | 12 | 177 | 0.0 | 1.6 | 0.00 | 1.60 | 0.00 | 83 | 1020.1 |
| 20260830100518 | 12 | 182 | 0.0 | 4.8 | 0.00 | 1.60 | 0.00 | 82 | 1020.1 |
| 20260830100031 | 12 | 167 | 0.0 | 4.8 | 0.00 | 1.60 | 0.00 | 82 | 1020.0 |
| 20260830095518 | 12 | 167 | 0.0 | 6.4 | 0.00 | 1.60 | 0.00 | 82 | 1020.0 |
| 20260830095011 | 13 | 193 | 0.0 | 6.4 | 0.00 | 1.60 | 0.00 | 82 | 1019.9 |
| 20260830094519 | 13 | 169 | 1.6 | 3.2 | 0.00 | 1.60 | 0.00 | 82 | 1020.0 |
| 20260830094012 | 13 | 176 | 0.0 | 3.2 | 0.00 | 1.60 | 0.00 | 82 | 1019.9 |
| 20260830093512 | 13 | 192 | 0.0 | 3.2 | 0.00 | 1.60 | 0.00 | 82 | 1020.0 |
| 20260830093023 | 13 | 192 | 1.6 | 3.2 | 0.00 | 1.60 | 0.00 | 81 | 1020.0 |
| 20260830092514 | 13 | 180 | 0.0 | 3.2 | 0.00 | 1.60 | 0.00 | 81 | 1019.9 |
| 20260830092014 | 13 | 180 | 0.0 | 4.8 | 0.00 | 1.60 | 0.00 | 81 | 1019.9 |
| 20260830091530 | 13 | 180 | 1.6 | 4.8 | 0.00 | 1.60 | 0.00 | 81 | 1019.9 |
| 20260830091016 | 13 | 177 | 0.0 | 6.4 | 0.00 | 1.60 | 0.00 | 81 | 1020.0 |
| 20260830090517 | 13 | 192 | 0.0 | 6.4 | 0.00 | 1.60 | 0.00 | 81 | 1020.0 |
| 20260830090031 | 13 | 148 | 0.0 | 4.8 | 0.00 | 1.60 | 0.00 | 81 | 1020.0 |
| 20260830085508 | 13 | 158 | 0.0 | 3.2 | 0.00 | 1.60 | 0.00 | 81 | 1020.2 |
| 20260830085006 | 13 | 177 | 0.0 | 4.8 | 0.00 | 1.60 | 0.00 | 81 | 1020.1 |
| 20260830084516 | 13 | 177 | 0.0 | 4.8 | 0.00 | 1.60 | 0.00 | 81 | 1020.0 |
| 20260830084013 | 13 | 186 | 0.0 | 4.8 | 0.00 | 1.60 | 0.00 | 81 | 1020.0 |
| 20260830083513 | 13 | 184 | 0.0 | 6.4 | 0.00 | 1.60 | 0.00 | 80 | 1020.0 |
| 20260830083019 | 13 | 205 | 0.0 | 6.4 | 0.00 | 1.60 | 0.00 | 80 | 1020.0 |
| 20260830082514 | 13 | 161 | 0.0 | 3.2 | 0.00 | 1.60 | 0.00 | 80 | 1020.0 |
| 20260830082017 | 13 | 200 | 0.0 | 1.6 | 0.00 | 1.60 | 0.00 | 80 | 1020.0 |
| 20260830081510 | 13 | 103 | 0.0 | 3.2 | 0.00 | 1.60 | 0.00 | 80 | 1019.9 |
| 20260830081004 | 13 | 140 | 1.6 | 4.8 | 0.00 | 1.60 | 0.00 | 80 | 1019.9 |
| 20260830080503 | 13 | 152 | 1.6 | 4.8 | 0.00 | 1.60 | 0.00 | 80 | 1019.8 |
| 20260830080006 | 13 | 250 | 0.0 | 3.2 | 0.00 | 1.60 | 0.00 | 80 | 1019.8 |
| 20260830075506 | 13 | 128 | 0.0 | 3.2 | 0.00 | 1.60 | 0.00 | 81 | 1019.9 |
| 20260830075009 | 13 | 180 | 0.0 | 0.0 | 0.00 | 1.60 | 0.00 | 81 | 1019.8 |
| 20260830074526 | 13 | 178 | 0.0 | 0.0 | 0.00 | 1.60 | 0.00 | 82 | 1019.8 |
| 20260830074020 | 13 | 184 | 0.0 | 0.0 | 0.00 | 1.60 | 0.00 | 82 | 1019.8 |
| 20260830073510 | 13 | 184 | 0.0 | 0.0 | 0.00 | 1.60 | 0.00 | 83 | 1019.8 |
| 20260830073019 | 13 | 184 | 0.0 | 0.0 | 0.00 | 1.60 | 0.00 | 83 | 1019.8 |
| 20260830072515 | 13 | 184 | 0.0 | 0.0 | 0.00 | 1.60 | 0.00 | 82 | 1019.7 |
| 20260830072016 | 13 | 184 | 0.0 | 3.2 | 0.00 | 1.60 | 0.00 | 82 | 1019.7 |
| 20260830071528 | 13 | 184 | 0.0 | 6.4 | 0.00 | 1.60 | 0.00 | 82 | 1019.7 |
| 20260830071015 | 13 | 230 | 0.0 | 6.4 | 0.00 | 1.60 | 0.00 | 83 | 1019.6 |
| 20260830070515 | 13 | 338 | 0.0 | 3.2 | 0.00 | 1.60 | 0.00 | 82 | 1019.6 |
| 20260830070004 | 13 | 186 | 0.0 | 3.2 | 0.00 | 1.60 | 0.00 | 82 | 1019.6 |
| 20260830065506 | 13 | 187 | 0.0 | 3.2 | 0.00 | 1.60 | 1.60 | 82 | 1019.7 |
| 20260830065006 | 13 | 244 | 0.0 | 3.2 | 0.00 | 1.60 | 1.60 | 82 | 1019.6 |
| 20260830064511 | 13 | 250 | 0.0 | 3.2 | 0.00 | 1.60 | 1.60 | 81 | 1019.6 |
| 20260830064006 | 13 | 252 | 0.0 | 3.2 | 0.00 | 1.60 | 1.60 | 81 | 1019.6 |
| 20260830063508 | 13 | 182 | 0.0 | 6.4 | 0.00 | 1.60 | 1.60 | 81 | 1019.5 |
| 20260830063017 | 13 | 235 | 1.6 | 6.4 | 0.00 | 1.60 | 1.60 | 81 | 1019.5 |
| 20260830062511 | 13 | 232 | 0.0 | 6.4 | 0.00 | 1.60 | 1.60 | 80 | 1019.5 |
| 20260830062011 | 13 | 224 | 3.2 | 6.4 | 0.00 | 1.60 | 1.60 | 80 | 1019.4 |
| 20260830061527 | 13 | 319 | 0.0 | 3.2 | 0.00 | 1.60 | 1.60 | 81 | 1019.4 |
| 20260830061016 | 13 | 199 | 0.0 | 6.4 | 0.00 | 1.60 | 1.60 | 81 | 1019.5 |
| 20260830060514 | 13 | 232 | 0.0 | 6.4 | 0.00 | 1.60 | 1.60 | 80 | 1019.4 |
| 20260830060028 | 13 | 219 | 0.0 | 3.2 | 0.00 | 1.60 | 1.60 | 80 | 1019.4 |
| 20260830055516 | 13 | 196 | 1.6 | 3.2 | 0.00 | 1.60 | 1.60 | 80 | 1019.5 |
| 20260830055015 | 13 | 217 | 0.0 | 4.8 | 0.00 | 1.60 | 1.60 | 79 | 1019.5 |
| 20260830054518 | 14 | 259 | 1.6 | 6.4 | 0.00 | 1.60 | 1.60 | 78 | 1019.5 |
| 20260830054011 | 14 | 228 | 0.0 | 6.4 | 0.00 | 1.60 | 1.60 | 78 | 1019.5 |
| 20260830053508 | 14 | 188 | 0.0 | 4.8 | 0.00 | 1.60 | 1.60 | 78 | 1019.5 |
| 20260830053014 | 14 | 229 | 0.0 | 8.0 | 0.00 | 1.60 | 1.60 | 78 | 1019.5 |
| 20260830052508 | 14 | 198 | 3.2 | 8.0 | 0.00 | 1.60 | 1.60 | 77 | 1019.5 |
| 20260830052012 | 14 | 184 | 0.0 | 3.2 | 0.00 | 1.60 | 1.60 | 76 | 1019.5 |
| 20260830051536 | 14 | 248 | 0.0 | 4.8 | 0.00 | 1.60 | 1.60 | 76 | 1019.4 |
| 20260830051012 | 15 | 227 | 0.0 | 4.8 | 0.00 | 1.60 | 1.60 | 75 | 1019.4 |
| 20260830050511 | 15 | 251 | 0.0 | 12.9 | 0.00 | 1.60 | 1.60 | 75 | 1019.4 |
| 20260830050023 | 15 | 219 | 1.6 | 12.9 | 0.00 | 1.60 | 1.60 | 74 | 1019.4 |
| 20260830045516 | 15 | 228 | 0.0 | 8.0 | 0.00 | 1.60 | 1.60 | 73 | 1019.3 |
| 20260830045016 | 15 | 221 | 0.0 | 8.0 | 0.00 | 1.60 | 1.60 | 73 | 1019.3 |
| 20260830044528 | 15 | 215 | 1.6 | 8.0 | 0.00 | 1.60 | 1.60 | 73 | 1019.2 |
| 20260830044019 | 15 | 161 | 1.6 | 8.0 | 0.00 | 1.60 | 1.60 | 73 | 1019.1 |
| 20260830043519 | 15 | 193 | 1.6 | 6.4 | 0.00 | 1.60 | 1.60 | 74 | 1019.1 |
| 20260830043011 | 15 | 219 | 1.6 | 11.3 | 0.00 | 1.60 | 1.60 | 75 | 1019.1 |
| 20260830042505 | 15 | 219 | 3.2 | 11.3 | 0.00 | 1.60 | 1.60 | 74 | 1019.1 |
| 20260830042010 | 15 | 234 | 1.6 | 11.3 | 0.00 | 1.60 | 1.60 | 73 | 1019.1 |
| 20260830041543 | 15 | 206 | 1.6 | 11.3 | 0.00 | 1.60 | 1.60 | 73 | 1019.1 |
| 20260830041012 | 15 | 222 | 1.6 | 4.8 | 0.00 | 1.60 | 1.60 | 73 | 1019.0 |
| 20260830040513 | 15 | 198 | 1.6 | 3.2 | 0.00 | 1.60 | 1.60 | 73 | 1018.9 |
| 20260830040024 | 15 | 200 | 0.0 | 9.7 | 0.00 | 1.60 | 1.60 | 72 | 1018.9 |
| 20260830035514 | 15 | 200 | 0.0 | 9.7 | 0.00 | 1.60 | 1.60 | 72 | 1018.8 |
| 20260830035015 | 15 | 209 | 0.0 | 4.8 | 0.00 | 1.60 | 1.60 | 73 | 1018.7 |
| 20260830034527 | 15 | 215 | 0.0 | 4.8 | 0.00 | 1.60 | 1.60 | 72 | 1018.6 |
| 20260830034017 | 15 | 202 | 1.6 | 6.4 | 0.00 | 1.60 | 1.60 | 71 | 1018.6 |
| 20260830033517 | 16 | 236 | 0.0 | 6.4 | 0.00 | 1.60 | 1.60 | 70 | 1018.5 |
| 20260830033032 | 16 | 212 | 1.6 | 9.7 | 0.00 | 1.60 | 1.60 | 70 | 1018.5 |
| 20260830032518 | 16 | 195 | 3.2 | 9.7 | 0.00 | 1.60 | 1.60 | 69 | 1018.4 |
| 20260830032018 | 16 | 206 | 3.2 | 9.7 | 0.00 | 1.60 | 1.60 | 69 | 1018.3 |
| 20260830031515 | 16 | 217 | 1.6 | 8.0 | 0.00 | 1.60 | 1.60 | 68 | 1018.3 |
| 20260830031011 | 16 | 198 | 1.6 | 8.0 | 0.00 | 1.60 | 1.60 | 67 | 1018.2 |
| 20260830030511 | 16 | 193 | 1.6 | 6.4 | 0.00 | 1.60 | 1.60 | 67 | 1018.2 |
| 20260830030025 | 16 | 232 | 1.6 | 4.8 | 0.00 | 1.60 | 1.60 | 66 | 1018.2 |
| 20260830025517 | 16 | 209 | 1.6 | 6.4 | 0.00 | 1.60 | 1.60 | 66 | 1018.3 |
| 20260830025013 | 16 | 185 | 0.0 | 6.4 | 0.00 | 1.60 | 1.60 | 66 | 1018.2 |
| 20260830024527 | 16 | 209 | 1.6 | 4.8 | 0.00 | 1.60 | 1.60 | 65 | 1018.2 |
| 20260830024016 | 16 | 192 | 1.6 | 4.8 | 0.00 | 1.60 | 1.60 | 66 | 1018.1 |
| 20260830023516 | 16 | 201 | 0.0 | 9.7 | 0.00 | 1.60 | 1.60 | 65 | 1018.0 |
| 20260830023028 | 17 | 191 | 0.0 | 9.7 | 0.00 | 1.60 | 1.60 | 65 | 1018.0 |
| 20260830022518 | 17 | 243 | 0.0 | 3.2 | 0.00 | 1.60 | 1.60 | 63 | 1018.0 |
| 20260830022020 | 17 | 196 | 0.0 | 8.0 | 0.00 | 1.60 | 1.60 | 63 | 1017.8 |
| 20260830021531 | 17 | 241 | 1.6 | 6.4 | 0.00 | 1.60 | 1.60 | 62 | 1017.9 |
| 20260830021015 | 17 | 250 | 1.6 | 6.4 | 0.00 | 1.60 | 1.60 | 62 | 1017.8 |
| 20260830020514 | 17 | 220 | 1.6 | 6.4 | 0.00 | 1.60 | 1.60 | 61 | 1017.9 |
| 20260830020029 | 17 | 193 | 1.6 | 8.0 | 0.00 | 1.60 | 1.60 | 62 | 1017.9 |
| 20260830015510 | 17 | 215 | 3.2 | 8.0 | 0.00 | 1.60 | 1.60 | 63 | 1017.8 |
| 20260830015014 | 17 | 183 | 0.0 | 8.0 | 0.00 | 1.60 | 1.60 | 63 | 1017.8 |
| 20260830014523 | 17 | 228 | 1.6 | 8.0 | 0.00 | 1.60 | 1.60 | 64 | 1017.8 |
| 20260830014012 | 17 | 194 | 0.0 | 8.0 | 0.00 | 1.60 | 1.60 | 63 | 1017.8 |
| 20260830013519 | 17 | 211 | 1.6 | 8.0 | 0.00 | 1.60 | 1.60 | 64 | 1017.8 |
| 20260830013026 | 17 | 214 | 1.6 | 4.8 | 0.00 | 1.60 | 1.60 | 63 | 1017.9 |
| 20260830012503 | 18 | 211 | 0.0 | 6.4 | 0.00 | 1.60 | 1.60 | 63 | 1017.8 |
| 20260830012006 | 18 | 217 | 0.0 | 6.4 | 0.00 | 1.60 | 1.60 | 63 | 1017.8 |
| 20260830011508 | 18 | 240 | 1.6 | 6.4 | 0.00 | 1.60 | 1.60 | 63 | 1017.9 |
| 20260830011006 | 18 | 181 | 1.6 | 4.8 | 0.00 | 1.60 | 1.60 | 63 | 1017.9 |
| 20260830010508 | 18 | 186 | 1.6 | 6.4 | 0.00 | 1.60 | 1.60 | 62 | 1017.8 |
| 20260830010017 | 18 | 182 | 0.0 | 8.0 | 0.00 | 1.60 | 1.60 | 63 | 1017.9 |
| 20260830005502 | 18 | 198 | 3.2 | 8.0 | 0.00 | 1.60 | 1.60 | 63 | 1017.9 |
| 20260830005006 | 18 | 237 | 3.2 | 8.0 | 0.00 | 1.60 | 1.60 | 63 | 1017.9 |
| 20260830004503 | 18 | 199 | 1.6 | 11.3 | 0.00 | 1.60 | 1.60 | 63 | 1017.9 |
| 20260830004005 | 18 | 207 | 4.8 | 11.3 | 0.00 | 1.60 | 1.60 | 61 | 1017.8 |
| 20260830003503 | 18 | 213 | 1.6 | 11.3 | 0.00 | 1.60 | 1.60 | 62 | 1017.8 |
| 20260830003003 | 18 | 176 | 3.2 | 11.3 | 0.00 | 1.60 | 1.60 | 61 | 1017.8 |
| 20260830002503 | 18 | 136 | 3.2 | 11.3 | 0.00 | 1.60 | 1.60 | 61 | 1017.8 |
| 20260830002005 | 18 | 191 | 4.8 | 8.0 | 0.00 | 1.60 | 1.60 | 61 | 1017.8 |
| 20260830001508 | 18 | 175 | 3.2 | 8.0 | 0.00 | 1.60 | 1.60 | 59 | 1017.8 |
| 20260830001007 | 18 | 146 | 3.2 | 9.7 | 0.00 | 1.60 | 1.60 | 60 | 1017.8 |
| 20260830000508 | 19 | 209 | 3.2 | 9.7 | 0.00 | 1.60 | 1.60 | 58 | 1017.7 |